Погода в Реусе

Испания     41°09′24″N   1°06′38″E
темп.,
°C
ветер,
м/с
пор.,
м/с
влажн.,
%
обл.,
%
осадки,
мм/ч
давл.,
гПа
погр.,
м
5 марта, пт
пт501:00+6юв11910 0.0 101932
04:00+6с11880 0.0 101822
07:00+6ссз11850 0.0 101822
10:00+11ссз01700 0.0 1018319
13:00+14ююв216111 0.1 1017865
16:00+13ю226374 0.2 1017577
19:00+10ююв127747 0.3 101767
22:00+8юв11837 0.0 102062
6 марта, сб
сб601:00+7юв11813 0.0 102029
04:00+7в017837 0.0 102122
07:00+7св018168 0.0 102222
10:00+10юв2372100 0.0 1023573
13:00+10юв3482100 0.2 1024505
16:00+11юв3471100 0.2 1022723
19:00+8юв238585 0.2 1022125
22:00+6юв228920 0.0 1024111
7 марта, вс
вс701:00+6вюв129044 0.0 102433
04:00+5всв118754 0.0 102223
07:00+6св128777 0.0 102226
10:00+10юв237299 0.0 1021559
13:00+12юв3361100 0.1 1020941
16:00+12юв326492 0.1 1017862
19:00+8юв229082 0.1 1017143
22:00+7юв119439 0.0 101881
8 марта, пн
пн801:00+6всв119437 0.0 101826
04:00+7ссз018780 0.0 101722
07:00+7сз117989 0.0 101722
10:00+9зсз127198 0.0 1017298
13:00+12з226598 0.6 1017856
16:00+12з2368100 1.9 1016824
19:00+9юз2283100 2.7 1017103
22:00+7ю118781 0.1 101981
9 марта, вт
вт901:00+6зсз248689 0.1 1020215
04:00+4зсз348652 0.0 1019150
07:00+3зсз349045 0.0 1019121
10:00+8зсз347514 0.0 1020298
13:00+12зсз33598 0.0 1020912
16:00+13зсз44500 0.0 10191370
19:00+9з47619 0.1 1020279
22:00+6зсз35630 0.0 1024136